Location: Groß Eilstorf
(52.8200°N, 9.4552°E)
Time: 10:21:33
(UTC+00:00)

Cosmos 1805 - Pass Details

Date: 15 May 2026
Orbit: 411 x 414 km, 82.5° (Epoch: 5 June)

Event Time Altitude Azimuth Distance (km) Brightness Sun altitude
Rises 20:29:44 0° 351° (N) 2,380 7.7 -9.4°
Reaches altitude 10° 20:31:48 10° 355° (N) 1,509 6.5 -9.6°
Maximum altitude 20:35:03 61° 77° (ENE) 481 2.9 -9.9°
Enters shadow 20:37:38 15° 156° (SSE) 1,230 4.5 -10.2°
